Rbgn^[z[y[W
メイン
   新天体発見情報
     Comet C/2020 O2 (Amaral)
投稿するにはまず登録を

スレッド表示 | 古いものから 前のトピック | 次のトピック | 下へ
投稿者 スレッド
佐藤裕久
投稿日時: 2020-8-25 17:38
モデレータ
登録日: 2005-6-12
居住地: 日本
投稿: 2463
オンライン
Comet C/2020 O2 (Amaral)

Leonardo S. Amaral (Rio de Janeiro, ブラジル)の通報によると、7月23日、0.3-m f/4 反射望遠鏡
で得た3枚の60秒CCD露出から彗星を発見した。この天体は、拡散した13"のコマがあると注記した。
小惑星センターのPCCP webpageに公表後、佐藤英貴氏(東京都文京区, 7月30.4日UT,60秒露出9枚
のスタック, 0.51-m f/6.8 アストログラフ, Siding Spring, NSW, 遠隔操作:強く集光した8" のコマ
が見るが尾はない。4".9の円形範囲で測定した光度は17.9等であった)ら、他のCCD位置観測者によって
彗星状と観測された。

彗星機能の報告は次の通り:

OC   Date        Reporter           Coma    Tail    PA          Exposures
X74  2020-07-23  L. S. Amaral        13"                          3x60s
X02  2020-07-27  E. Guido             8"                         16x90s
X31  2020-07-28  C. N. Fornari      18".5
Q62  2020-07-30  H. Sato              8"                          9x60s

発見位置は次のとおり、

     2020 UT             R.A. (2000) Decl.       Mag.   Observer
     July 23.97256   14 20 47.55   -53 18 20.9   18.1   Amaral
          23.98569   14 20 47.94   -53 18 12.3   18.2     "
          23.99894   14 20 48.18   -53 18 03.4   18.3     "
          24.06568   14 20 49.49   -53 17 19.7   17.9     "
          24.07609   14 20 49.74   -53 17 12.5   18.4     "
          24.08656   14 20 50.00   -53 17 06.6   18.5     "

MPCの放物線軌道要素、位置推算表は次のとおり、

Orbital elements:
    C/2020 O2 (Amaral)                                                          
T 2021 Aug. 23.83721 TT                                 Rudenko                 
q   4.9044268            (2000.0)            P               Q                  
                   Peri.    9.38910     -0.17882316     +0.33605906             
                   Node   256.62923     -0.95309134     -0.29245252             
e   1.0            Incl.   71.89202     -0.24421133     +0.89528533             
From 63 observations 2020 July 23-31.                                           
                                                                                
Ephemeris:
Date    TT    R. A. (2000) Decl.     Delta      r    Elong.  Phase   m1
2020 07 03    14 16 57.4 -57 14 27   5.2598  5.8484   121.0     8.6  17.7
...
2020 07 18    14 18 56.2 -54 23 50   5.3445  5.7884   111.1     9.4  17.7
...
2020 07 26    14 21 33.0 -52 56 35   5.4044  5.7570   105.3     9.8  17.7
...
2020 08 01    14 24 07.8 -51 53 46   5.4547  5.7337   100.9    10.0  17.8
2020 08 02    14 24 36.5 -51 43 33   5.4634  5.7298   100.1    10.0  17.8
2020 08 03    14 25 05.9 -51 33 24   5.4723  5.7260    99.4    10.1  17.8
...
2020 08 09    14 28 18.4 -50 34 08   5.5273  5.7030    94.8    10.2  17.8
...
2020 08 17    14 33 14.0 -49 19 36   5.6046  5.6727    88.7    10.3  17.8
...
2020 09 01    14 44 11.6 -47 14 33   5.7553  5.6171    77.1    10.1  17.8

(MPEC 2020-P10、CBET 4822)


スレッド表示 | 古いものから 前のトピック | 次のトピック | トップ

投稿するにはまず登録を
 
© 1999 Tsutomu Seki.